Location: Alberta Star Party
(51.6612°N, 112.9089°W)
Time: 13:40:52
(UTC-06:00)

Amateur Radio Satellites - All Passes

Search period start: 25 October 2014 13:10
Search period end: 26 October 2014 13:10
Location: Alberta Star Party, 51.6612°N, 112.9089°W

Satellite Date Start Highest point End Downlink Frequencies (MHz)
Time Altitude Azimuth
Uribyol 2 25 Oct 13:24:11 13:28:25 26° 58° (ENE) 13:32:41 436.500 FM
ITAMSAT 1 25 Oct 13:30:18 13:34:37 27° 59° (ENE) 13:38:57 435.822 SSB
ISS 25 Oct 13:31:45 13:34:05 18° 143° (SE) 13:36:25 145.800 FM
Saudisat 1A 25 Oct 13:32:35 13:35:29 17° 11° (N) 13:38:24 436.775 MHz
Sapphire 25 Oct 13:50:55 13:56:11 51° 241° (WSW) 14:01:25 437.095 MHz 1200 baud AX-25 AFSK
Gurwin Techsat 1B 25 Oct 13:54:24 13:58:38 25° 57° (ENE) 14:02:52 435.225 FM
ZACube-1 25 Oct 13:54:30 13:56:22 13° 306° (NW) 13:58:12 437.345 MHz
Oscar 19 25 Oct 13:55:30 14:00:40 80° 72° (ENE) 14:05:50 437.125 CW, 437.150 USB
TMSAT-1 25 Oct 14:05:19 14:09:25 23° 57° (ENE) 14:13:33 436.925 FM
SO-50 25 Oct 14:13:34 14:18:04 66° 128° (SE) 14:22:43 436.795 FM
PCSat 25 Oct 14:13:40 14:18:30 34° 246° (WSW) 14:23:19 145.825 MHz
AO-27 25 Oct 14:15:05 14:20:11 57° 68° (ENE) 14:25:19 436.795 MHz FM
JAS-1B 25 Oct 14:25:10 14:30:59 76° 255° (WSW) 14:36:43 435.800 - 435.900 CW/SSB
AO-7 25 Oct 14:25:42 14:32:06 26° 42° (NE) 14:38:31 29.400 - 29.500 MHz
AO-Echo 25 Oct 14:30:39 14:35:36 86° 73° (ENE) 14:40:46 ?
Oscar 16 25 Oct 14:41:49 14:46:44 44° 262° (W) 14:51:41 437.025 USB, Beacon 2401.1428
KITSAT 1 25 Oct 14:45:31 14:53:31 61° 319° (NW) 15:01:33 435.175 FM
Uribyol 2 25 Oct 15:02:22 15:07:33 63° 258° (WSW) 15:12:46 436.500 FM
ISS 25 Oct 15:07:01 15:10:19 60° 161° (SSE) 15:13:37 145.800 FM
ITAMSAT 1 25 Oct 15:08:39 15:13:47 59° 258° (WSW) 15:18:59 435.822 SSB
Saudisat 1A 25 Oct 15:12:08 15:16:15 36° 34° (NE) 15:20:21 436.775 MHz
JAS-2 25 Oct 15:17:42 15:19:50 12° 35° (NE) 15:22:02 435.800 - 435.900 CW/SSB, 435.910 FM
Gurwin Techsat 1B 25 Oct 15:32:54 15:38:11 67° 257° (WSW) 15:43:31 435.225 FM
UOSAT-12 25 Oct 15:33:15 15:37:41 45° 123° (ESE) 15:42:12 437.025 FM, 437.400 FM
Oscar 19 25 Oct 15:37:14 15:40:39 18° 272° (W) 15:44:04 437.125 CW, 437.150 USB
TMSAT-1 25 Oct 15:43:36 15:48:53 71° 257° (WSW) 15:54:13 436.925 FM
SO-50 25 Oct 15:54:51 15:59:00 32° 330° (NNW) 16:03:15 436.795 FM
AO-27 25 Oct 15:55:44 16:00:03 26° 268° (W) 16:04:24 436.795 MHz FM
AO-Echo 25 Oct 16:12:07 16:15:08 16° 274° (W) 16:18:12 ?
AO-7 25 Oct 16:15:30 16:23:45 76° 65° (ENE) 16:32:03 29.400 - 29.500 MHz
Uosat F 25 Oct 16:16:28 16:21:15 46° 66° (ENE) 16:26:04 435.120 FM
JAS-1B 25 Oct 16:20:39 16:22:52 12° 277° (W) 16:25:05 435.800 - 435.900 CW/SSB
KITSAT 1 25 Oct 16:43:31 16:50:36 32° 346° (NNW) 16:57:41 435.175 FM
ISS 25 Oct 16:43:37 16:46:58 88° 2° (N) 16:50:20 145.800 FM
Uribyol 2 25 Oct 16:47:24 16:48:06 10° 278° (W) 16:48:48 436.500 FM
Saudisat 1A 25 Oct 16:51:42 16:56:00 50° 235° (SW) 17:00:16 436.775 MHz
JAS-2 25 Oct 16:57:10 17:02:52 38° 58° (ENE) 17:09:15 435.800 - 435.900 CW/SSB, 435.910 FM
Hamsat 25 Oct 16:57:10 16:59:45 16° 58° (ENE) 17:02:21 145.90 MHz
UOSAT-12 25 Oct 17:13:27 17:17:55 41° 324° (NW) 17:22:27 437.025 FM, 437.400 FM
Gurwin Techsat 1B 25 Oct 17:17:35 17:19:12 11° 277° (W) 17:20:50 435.225 FM
TMSAT-1 25 Oct 17:27:45 17:29:48 12° 277° (W) 17:31:52 436.925 FM
SO-50 25 Oct 17:37:44 17:40:56 18° 354° (N) 17:44:10 436.795 FM
Uosat F 25 Oct 17:55:48 18:00:13 30° 265° (W) 18:04:40 435.120 FM
OPAL 25 Oct 17:56:15 17:59:52 20° 93° (E) 18:03:27 ?
AO-7 25 Oct 18:10:13 18:17:19 31° 267° (W) 18:24:30 29.400 - 29.500 MHz
HO-68 25 Oct 18:10:32 18:11:47 11° 28° (NNE) 18:13:01 435.675 MHz FM
ISS 25 Oct 18:20:20 18:23:36 52° 201° (SSW) 18:26:52 145.800 FM
Hamsat 25 Oct 18:31:01 18:35:13 74° 257° (WSW) 18:39:26 145.90 MHz
KITSAT 1 25 Oct 18:41:23 18:48:30 32° 15° (NNE) 18:55:36 435.175 FM
JAS-2 25 Oct 18:41:41 18:47:42 54° 262° (W) 18:54:34 435.800 - 435.900 CW/SSB, 435.910 FM
UOSAT-12 25 Oct 18:55:50 18:59:14 19° 347° (NNW) 19:02:39 437.025 FM, 437.400 FM
AO-40 25 Oct 19:06:44 00:21:57 32° 184° (S) 06:28:59 Beacon 2401.320
SO-67 25 Oct 19:06:50 19:10:02 37° 70° (ENE) 19:13:15 435.3500 MHz FM
SO-50 25 Oct 19:19:25 19:23:06 22° 19° (NNE) 19:26:51 436.795 FM
OPAL 25 Oct 19:34:18 19:39:16 69° 292° (WNW) 19:44:11 ?
STRAND 1 25 Oct 19:41:33 19:45:59 28° 93° (E) 19:50:22 ?
HO-68 25 Oct 19:51:15 19:57:20 31° 52° (NE) 20:03:26 435.675 MHz FM
ISS 25 Oct 19:57:49 19:59:45 15° 220° (SW) 20:01:41 145.800 FM
JAS-2 25 Oct 20:33:22 20:34:41 11° 286° (WNW) 20:36:02 435.800 - 435.900 CW/SSB, 435.910 FM
KITSAT 1 25 Oct 20:37:29 20:45:32 63° 42° (NE) 20:53:32 435.175 FM
UOSAT-12 25 Oct 20:37:38 20:41:02 19° 12° (NNE) 20:44:25 437.025 FM, 437.400 FM
SO-67 25 Oct 20:40:39 20:43:10 19° 268° (W) 20:45:42 435.3500 MHz FM
Oscar 11 25 Oct 20:51:14 20:54:01 17° 58° (ENE) 20:56:48 145.825 FM, Beacon 2401.500 USB
SO-50 25 Oct 20:59:52 21:04:37 56° 41° (NE) 21:09:25 436.795 FM
OPAL 25 Oct 21:14:39 21:17:19 15° 312° (NW) 21:20:00 ?
RS-15 25 Oct 21:17:54 21:24:52 20° 98° (E) 21:31:48 29.354 - 29.394 USB, Beacon 29.352 USB
STRAND 1 25 Oct 21:20:26 21:25:26 51° 293° (WNW) 21:30:25 ?
HO-68 25 Oct 21:37:20 21:44:30 76° 254° (WSW) 21:51:45 435.675 MHz FM
ZACube-1 25 Oct 21:42:28 21:46:06 24° 62° (ENE) 21:49:42 437.345 MHz
UKube-1 25 Oct 21:44:50 21:49:05 53° 69° (ENE) 21:53:21 145.840 MHz, 145.915 MHz
UOSAT-12 25 Oct 22:17:52 22:22:22 40° 35° (NE) 22:26:49 437.025 FM, 437.400 FM
Oscar 11 25 Oct 22:25:22 22:29:42 75° 257° (WSW) 22:34:03 145.825 FM, Beacon 2401.500 USB
FUNcube-1 25 Oct 22:25:56 22:30:23 54° 70° (ENE) 22:34:46 145.950 - 145.970 MHz USB
KITSAT 1 25 Oct 22:33:13 22:40:45 45° 246° (WSW) 22:48:16 435.175 FM
SO-50 25 Oct 22:40:45 22:45:01 31° 241° (WSW) 22:49:18 436.795 FM
STRAND 1 25 Oct 23:01:58 23:03:32 11° 313° (NW) 23:05:07 ?
Oscar 10/S400 25 Oct 23:12:47 23:59:31 31° 213° (SSW) 04:15:07 145.825 - 145.975 CW/USB, Beacon 145.810 USB
ZACube-1 25 Oct 23:17:47 23:22:15 52° 260° (W) 23:26:39 437.345 MHz
UKube-1 25 Oct 23:22:17 23:25:35 21° 268° (W) 23:28:55 145.840 MHz, 145.915 MHz
RS-15 25 Oct 23:24:13 23:35:00 68° 122° (ESE) 23:45:49 29.354 - 29.394 USB, Beacon 29.352 USB
HO-68 25 Oct 23:28:55 23:33:27 18° 275° (W) 23:38:02 435.675 MHz FM
MaSat-1 25 Oct 23:49:58 23:52:52 20° 111° (ESE) 23:55:33 437.345 MHz
UOSAT-12 25 Oct 23:58:06 00:02:38 47° 236° (WSW) 00:07:06 437.025 FM, 437.400 FM
FUNcube-1 26 Oct 00:03:33 00:07:04 22° 269° (W) 00:10:33 145.950 - 145.970 MHz USB
MaSat-1 26 Oct 01:24:26 01:28:15 51° 307° (NW) 01:31:40 437.345 MHz
RS-15 26 Oct 01:37:10 01:47:52 56° 330° (NNW) 01:58:44 29.354 - 29.394 USB, Beacon 29.352 USB
JAS-1B 26 Oct 02:01:50 02:07:01 23° 91° (E) 02:12:48 435.800 - 435.900 CW/SSB
Oscar 19 26 Oct 02:02:28 02:06:04 19° 89° (E) 02:09:39 437.125 CW, 437.150 USB
AO-27 26 Oct 02:24:17 02:26:44 13° 85° (E) 02:29:10 436.795 MHz FM
AO-Echo 26 Oct 02:32:56 02:36:53 21° 89° (E) 02:40:50 ?
Oscar 16 26 Oct 02:47:41 02:52:35 43° 98° (E) 02:57:27 437.025 USB, Beacon 2401.1428
MaSat-1 26 Oct 03:03:49 03:04:31 10° 326° (NW) 03:05:12 437.345 MHz
Uribyol 2 26 Oct 03:09:47 03:14:26 32° 95° (E) 03:19:03 436.500 FM
ITAMSAT 1 26 Oct 03:16:06 03:20:51 34° 95° (E) 03:25:33 435.822 SSB
PCSat 26 Oct 03:19:59 03:22:43 14° 104° (ESE) 03:25:27 145.825 MHz
OPAL 26 Oct 03:40:10 03:42:52 15° 48° (NE) 03:45:34 ?
Oscar 19 26 Oct 03:40:52 03:46:00 75° 288° (WNW) 03:51:05 437.125 CW, 437.150 USB
Gurwin Techsat 1B 26 Oct 03:43:43 03:48:32 33° 95° (E) 03:53:19 435.225 FM
JAS-1B 26 Oct 03:51:47 03:58:15 83° 288° (WNW) 04:05:58 435.800 - 435.900 CW/SSB
RS-15 26 Oct 03:52:37 04:02:52 42° 3° (N) 04:13:22 29.354 - 29.394 USB, Beacon 29.352 USB
TMSAT-1 26 Oct 03:54:07 03:58:50 31° 94° (E) 04:03:31 436.925 FM
AO-27 26 Oct 04:01:53 04:07:09 77° 105° (ESE) 04:12:23 436.795 MHz FM
AO-Echo 26 Oct 04:10:52 04:16:11 73° 288° (WNW) 04:21:29 ?
AO-7 26 Oct 04:12:21 04:17:24 17° 84° (E) 04:22:24 29.400 - 29.500 MHz
Oscar 16 26 Oct 04:27:17 04:31:51 34° 298° (WNW) 04:36:25 437.025 USB, Beacon 2401.1428
Sapphire 26 Oct 04:37:42 04:42:53 48° 118° (ESE) 04:48:06 437.095 MHz 1200 baud AX-25 AFSK
Uribyol 2 26 Oct 04:49:06 04:54:05 46° 294° (WNW) 04:59:02 436.500 FM
ITAMSAT 1 26 Oct 04:55:31 05:00:29 44° 295° (WNW) 05:05:24 435.822 SSB
PCSat 26 Oct 04:59:49 05:05:12 73° 124° (ESE) 05:10:39 145.825 MHz
OPAL 26 Oct 05:15:50 05:20:55 66° 68° (ENE) 05:25:57 ?
Oscar 19 26 Oct 05:21:38 05:24:32 15° 309° (NW) 05:27:26 437.125 CW, 437.150 USB
Gurwin Techsat 1B 26 Oct 05:23:36 05:28:39 45° 294° (WNW) 05:33:41 435.225 FM
STRAND 1 26 Oct 05:26:44 05:29:25 14° 50° (NE) 05:32:07 ?
TMSAT-1 26 Oct 05:33:52 05:38:58 48° 294° (WNW) 05:44:02 436.925 FM
AO-27 26 Oct 05:42:15 05:46:09 22° 305° (NW) 05:50:02 436.795 MHz FM
JAS-1B 26 Oct 05:43:38 05:48:16 22° 308° (NW) 05:53:25 435.800 - 435.900 CW/SSB
JAS-2 26 Oct 05:44:37 05:50:47 25° 86° (E) 05:56:57 435.800 - 435.900 CW/SSB, 435.910 FM
AO-Echo 26 Oct 05:51:02 05:54:07 16° 308° (NW) 05:57:12 ?
Uosat F 26 Oct 05:57:04 06:02:04 56° 101° (E) 06:07:01 435.120 FM
AO-7 26 Oct 06:03:30 06:11:49 68° 106° (ESE) 06:20:07 29.400 - 29.500 MHz
RS-15 26 Oct 06:06:40 06:17:38 63° 35° (NE) 06:28:59 29.354 - 29.394 USB, Beacon 29.352 USB
Hamsat 26 Oct 06:12:29 06:14:43 14° 87° (E) 06:16:56 145.90 MHz
Sapphire 26 Oct 06:21:18 06:26:26 42° 320° (NW) 06:31:37 437.095 MHz 1200 baud AX-25 AFSK
Uribyol 2 26 Oct 06:31:30 06:32:22 10° 315° (NW) 06:33:14 436.500 FM
PCSat 26 Oct 06:44:17 06:49:07 32° 326° (NW) 06:53:59 145.825 MHz
OPAL 26 Oct 06:56:20 07:00:15 22° 266° (W) 07:04:09 ?
STRAND 1 26 Oct 07:02:38 07:07:44 68° 70° (ENE) 07:12:52 ?
Saudisat 1A 26 Oct 07:06:11 07:07:20 11° 109° (ESE) 07:08:29 436.775 MHz
Gurwin Techsat 1B 26 Oct 07:06:40 07:07:23 10° 315° (NW) 07:08:07 435.225 FM
TMSAT-1 26 Oct 07:16:25 07:17:42 11° 315° (NW) 07:18:58 436.925 FM
JAS-2 26 Oct 07:28:54 07:36:41 90° 107° (ESE) 07:44:33 435.800 - 435.900 CW/SSB, 435.910 FM
Uosat F 26 Oct 07:36:22 07:40:34 27° 301° (WNW) 07:44:45 435.120 FM
Hamsat 26 Oct 07:47:00 07:51:12 76° 286° (WNW) 07:55:24 145.90 MHz
MaSat-1 26 Oct 07:54:50 07:56:26 14° 39° (NE) 07:57:57 437.345 MHz
AO-7 26 Oct 07:56:45 08:04:14 39° 308° (NW) 08:11:44 29.400 - 29.500 MHz
SO-67 26 Oct 07:57:50 08:00:33 21° 93° (E) 08:03:15 435.3500 MHz FM
Sapphire 26 Oct 08:07:35 08:11:19 18° 344° (NNW) 08:15:04 437.095 MHz 1200 baud AX-25 AFSK
RS-15 26 Oct 08:19:22 08:30:06 58° 242° (WSW) 08:41:15 29.354 - 29.394 USB, Beacon 29.352 USB
PCSat 26 Oct 08:30:49 08:34:15 17° 351° (N) 08:37:41 145.825 MHz
Saudisat 1A 26 Oct 08:41:42 08:46:04 67° 128° (SE) 08:50:28 436.775 MHz
STRAND 1 26 Oct 08:43:34 08:47:25 21° 270° (W) 08:51:19 ?
HO-68 26 Oct 09:00:31 09:04:47 16° 84° (E) 09:09:02 435.675 MHz FM
JAS-2 26 Oct 09:14:39 09:20:54 29° 307° (NW) 09:27:18 435.800 - 435.900 CW/SSB, 435.910 FM
Hamsat 26 Oct 09:24:54 09:26:26 12° 305° (NW) 09:27:59 145.90 MHz
MaSat-1 26 Oct 09:29:41 09:32:19 45° 242° (WSW) 09:34:43 437.345 MHz
SO-67 26 Oct 09:30:29 09:33:37 33° 291° (WNW) 09:36:45 435.3500 MHz FM
AO-7 26 Oct 09:50:34 09:54:51 15° 333° (NNW) 09:59:08 29.400 - 29.500 MHz
Sapphire 26 Oct 09:53:22 09:56:52 17° 11° (N) 10:00:22 437.095 MHz 1200 baud AX-25 AFSK
Oscar 11 26 Oct 10:08:52 10:11:13 14° 88° (E) 10:13:33 145.825 FM, Beacon 2401.500 USB
PCSat 26 Oct 10:15:57 10:19:47 19° 17° (NNE) 10:23:37 145.825 MHz
Saudisat 1A 26 Oct 10:22:06 10:25:59 30° 330° (NNW) 10:29:55 436.775 MHz
RS-15 26 Oct 10:34:17 10:39:52 15° 266° (W) 10:45:35 29.354 - 29.394 USB, Beacon 29.352 USB
HO-68 26 Oct 10:46:36 10:53:50 71° 105° (ESE) 11:01:00 435.675 MHz FM
ZACube-1 26 Oct 11:02:12 11:05:28 21° 91° (E) 11:08:40 437.345 MHz
UKube-1 26 Oct 11:03:37 11:07:51 45° 100° (E) 11:12:03 145.840 MHz, 145.915 MHz
KITSAT 1 26 Oct 11:15:53 11:20:18 16° 99° (E) 11:24:43 435.175 FM
Sapphire 26 Oct 11:37:00 11:41:57 34° 36° (NE) 11:46:53 437.095 MHz 1200 baud AX-25 AFSK
Oscar 11 26 Oct 11:43:38 11:47:57 77° 286° (WNW) 11:52:15 145.825 FM, Beacon 2401.500 USB
FUNcube-1 26 Oct 11:45:58 11:50:10 53° 100° (E) 11:54:16 145.950 - 145.970 MHz USB
Oscar 19 26 Oct 11:50:27 11:50:59 10° 46° (NE) 11:51:32 437.125 CW, 437.150 USB
PCSat 26 Oct 11:59:20 12:04:35 45° 42° (NE) 12:09:47 145.825 MHz
Saudisat 1A 26 Oct 12:04:07 12:06:53 16° 353° (N) 12:09:39 436.775 MHz
Oscar 16 26 Oct 12:32:39 12:36:25 21° 56° (NE) 12:40:10 437.025 USB, Beacon 2401.1428
HO-68 26 Oct 12:34:51 12:41:04 33° 307° (NW) 12:47:17 435.675 MHz FM
ZACube-1 26 Oct 12:38:01 12:42:11 49° 291° (WNW) 12:46:14 437.345 MHz
UKube-1 26 Oct 12:40:13 12:43:50 26° 299° (WNW) 12:47:27 145.840 MHz, 145.915 MHz
ISS 26 Oct 12:43:47 12:45:07 12° 138° (SE) 12:46:27 145.800 FM
JAS-1B 26 Oct 12:54:47 12:59:35 29° 57° (ENE) 13:04:26 435.800 - 435.900 CW/SSB
Uribyol 2 26 Oct 12:56:09 12:59:24 17° 52° (NE) 13:02:38 436.500 FM
SO-50 26 Oct 13:00:52 13:04:31 24° 116° (ESE) 13:08:16 436.795 FM
ITAMSAT 1 26 Oct 13:02:28 13:05:51 18° 53° (NE) 13:09:15 435.822 SSB
